YUKO2: Yukon 2NNE(N Canadian R)

Data processed at Thu May 23 2019 23:50


All information presented herein is the property of the government of the United States of America and may be revised or deleted at any time without prior notice.
Dissemination of this information without the expressed written consent of the Public Affairs Office, Tulsa District U.S. Army Corps of Engineers is strictly prohibited.
These data are gathered electronically and, as presented, have not undergone any form of quality control. These data are not guaranteed to be valid or correct.
Go to home page.
Go to station list.
Go to home page.

Upstream stations:

Downstream station:
Previous Day
Next Day
Current Day
    
SHEF ID:       YUKO2     North Canadian River near Yukon,
STATION TYPE:  
Regulating: Stage =    11.00, Flow =     3611

                STAGE  STAGE(2)  RIV-FLOW  WTR-TEMP   CONDUCT  BAT-LOAD
                   ft        ft       cfs         F   umho/cm      volt
              Ccp-Rev   Ccp-Rev   Ccp-Rev   Ccp-Rev   Ccp-Rev   Ccp-Rev
(US/Central)
05/23 00:00     14.69      ----      7892     66.02       300     12.89
05/23 01:00     14.64      ----      7765     66.02       305     12.89
05/23 02:00     14.58      ----      7615     65.97       308     12.83
05/23 03:00     14.53      ----      7491     65.89       315     12.83
05/23 04:00     14.44      ----      7273     65.93       312     12.83
05/23 05:00     14.38      ----      7131     65.88       322     12.83
05/23 06:00     14.30      ----      6944     65.89       324     12.77
05/23 07:00     14.21      ----      6773     65.89       326     12.77
05/23 08:00     14.09      ----      6563     65.91       330     12.83
05/23 09:00     13.99      ----      6399     66.00       334     13.07
05/23 10:00     13.88      ----      6239     66.18       336     13.53
05/23 11:00     13.77      ----      6082     66.36       340     14.00
05/23 12:00     13.70      ----      5984     66.65       344     14.06
05/23 13:00     13.62      ----      5879     66.97       347     13.94
05/23 14:00     13.57      ----      5814     67.17       351     14.00
05/23 15:00     13.46      ----      5674     67.42       353     13.77
05/23 16:00     13.39      ----      5585     67.73       356     14.18
05/23 17:00     13.28      ----      5449     68.14       358     14.06
05/23 18:00     13.17      ----      5321     68.38       362     13.94
05/23 19:00     13.06      ----      5209     68.59       363     13.83
05/23 20:00     12.97      ----      5117     68.63       365     13.48
05/23 21:00     12.86      ----      5007     68.63       368     13.00
05/23 22:00     12.72      ----      4869     68.70       371     12.89
05/23 23:00     12.64      ----      4792     68.70       374     12.89